Wetterdaten: Freitag, 11.09.2015
Datum Zeit Auen-Temp. Temp gefhlt Luftfeuchte Luftdruck Regen Wind Richtung Richtung Taupunkt Windben
11.09.2015 00:00 4,8 C 4,7 C 87 % 1017,4 hPa 0,0 mm 0,0 km/h (0 Bft) S 180 2,8 C 0,0 km/h (0 Bft)
11.09.2015 00:05 4,9 C 4,7 C 91 % 1017,4 hPa 0,0 mm 0,0 km/h (0 Bft) S 180 3,6 C 0,0 km/h (0 Bft)
11.09.2015 00:10 4,4 C 4,3 C 91 % 1017,4 hPa 0,0 mm 0,0 km/h (0 Bft) S-SO 157 3,1 C 0,0 km/h (0 Bft)
11.09.2015 00:15 4,0 C 4,0 C 91 % 1017,2 hPa 0,0 mm 0,0 km/h (0 Bft) S-SO 157 2,7 C 0,0 km/h (0 Bft)
11.09.2015 00:20 4,3 C 4,1 C 91 % 1017,2 hPa 0,0 mm 0,0 km/h (0 Bft) S 180 3,0 C 0,0 km/h (0 Bft)
11.09.2015 00:25 4,7 C 4,5 C 88 % 1017,2 hPa 0,0 mm 0,0 km/h (0 Bft) S-SW 202 2,9 C 0,0 km/h (0 Bft)
11.09.2015 00:30 4,2 C 4,1 C 91 % 1017,2 hPa 0,0 mm 0,0 km/h (0 Bft) W-SW 247 2,9 C 0,0 km/h (0 Bft)
11.09.2015 00:35 3,9 C 3,8 C 91 % 1017,3 hPa 0,0 mm 0,0 km/h (0 Bft) S 180 2,6 C 0,0 km/h (0 Bft)
11.09.2015 00:40 4,5 C 4,1 C 91 % 1017,3 hPa 0,0 mm 0,0 km/h (0 Bft) S 180 3,2 C 0,0 km/h (0 Bft)
11.09.2015 00:45 4,5 C 4,2 C 91 % 1017,3 hPa 0,0 mm 1,0 km/h (0 Bft) S 180 3,2 C 2,8 km/h (1 Bft)
11.09.2015 00:50 4,3 C 4,1 C 91 % 1017,3 hPa 0,0 mm 1,6 km/h (1 Bft) W-SW 247 3,0 C 0,0 km/h (0 Bft)
11.09.2015 00:55 4,3 C 4,1 C 91 % 1017,2 hPa 0,0 mm 1,6 km/h (1 Bft) W-SW 247 3,0 C 6,0 km/h (2 Bft)
11.09.2015 01:00 3,9 C 4,0 C 91 % 1017,2 hPa 0,0 mm 2,1 km/h (1 Bft) W-SW 247 2,6 C 0,0 km/h (0 Bft)
11.09.2015 01:05 3,5 C 3,7 C 91 % 1017,2 hPa 0,0 mm 1,8 km/h (1 Bft) SW 225 2,2 C 0,0 km/h (0 Bft)
11.09.2015 01:10 3,5 C 3,5 C 91 % 1017,2 hPa 0,0 mm 0,0 km/h (0 Bft) S 180 2,2 C 0,0 km/h (0 Bft)
11.09.2015 01:15 3,5 C 3,4 C 91 % 1017,1 hPa 0,0 mm 0,0 km/h (0 Bft) S 180 2,2 C 0,0 km/h (0 Bft)
11.09.2015 01:20 3,9 C 3,6 C 91 % 1017,1 hPa 0,0 mm 0,0 km/h (0 Bft) S 180 2,6 C 0,0 km/h (0 Bft)
11.09.2015 01:25 3,9 C 3,6 C 88 % 1017,1 hPa 0,0 mm 0,0 km/h (0 Bft) S 180 2,1 C 0,0 km/h (0 Bft)
11.09.2015 01:30 3,7 C 3,4 C 91 % 1017,1 hPa 0,0 mm 0,0 km/h (0 Bft) S 180 2,4 C 0,0 km/h (0 Bft)
11.09.2015 01:35 3,7 C 3,4 C 91 % 1017,0 hPa 0,0 mm 0,0 km/h (0 Bft) S 180 2,4 C 0,0 km/h (0 Bft)
11.09.2015 01:40 3,7 C 3,3 C 91 % 1017,0 hPa 0,0 mm 0,0 km/h (0 Bft) S 180 2,4 C 0,0 km/h (0 Bft)
11.09.2015 01:45 3,6 C 3,3 C 91 % 1017,0 hPa 0,0 mm 0,0 km/h (0 Bft) SW 225 2,3 C 0,0 km/h (0 Bft)
11.09.2015 01:50 3,5 C 3,2 C 91 % 1017,0 hPa 0,0 mm 0,0 km/h (0 Bft) SW 225 2,2 C 0,0 km/h (0 Bft)
11.09.2015 01:55 3,4 C 3,1 C 91 % 1016,8 hPa 0,0 mm 0,0 km/h (0 Bft) S-SW 202 2,1 C 0,0 km/h (0 Bft)
11.09.2015 02:00 3,7 C 3,3 C 91 % 1016,8 hPa 0,0 mm 0,0 km/h (0 Bft) S 180 2,4 C 0,0 km/h (0 Bft)
11.09.2015 02:05 3,3 C 3,1 C 91 % 1016,8 hPa 0,0 mm 0,0 km/h (0 Bft) S 180 2,0 C 0,0 km/h (0 Bft)
11.09.2015 02:10 3,2 C 2,9 C 91 % 1016,8 hPa 0,0 mm 0,0 km/h (0 Bft) S 180 1,9 C 0,0 km/h (0 Bft)
11.09.2015 02:15 3,4 C 3,0 C 91 % 1016,6 hPa 0,0 mm 0,0 km/h (0 Bft) S 180 2,1 C 0,0 km/h (0 Bft)
11.09.2015 02:20 3,0 C 2,8 C 91 % 1016,6 hPa 0,0 mm 0,0 km/h (0 Bft) S 180 1,7 C 0,0 km/h (0 Bft)
11.09.2015 02:25 2,7 C 2,6 C 92 % 1016,6 hPa 0,0 mm 0,0 km/h (0 Bft) W-SW 247 1,5 C 0,0 km/h (0 Bft)
11.09.2015 02:30 3,1 C 2,8 C 91 % 1016,6 hPa 0,0 mm 0,0 km/h (0 Bft) W-SW 247 1,8 C 0,0 km/h (0 Bft)
11.09.2015 02:35 2,9 C 2,6 C 92 % 1016,6 hPa 0,0 mm 0,0 km/h (0 Bft) W-SW 247 1,7 C 0,0 km/h (0 Bft)
11.09.2015 02:40 2,8 C 2,5 C 92 % 1016,6 hPa 0,0 mm 0,0 km/h (0 Bft) W-SW 247 1,6 C 0,0 km/h (0 Bft)
11.09.2015 02:45 3,1 C 2,8 C 91 % 1016,6 hPa 0,0 mm 0,5 km/h (0 Bft) S 180 1,8 C 0,0 km/h (0 Bft)
11.09.2015 02:50 2,7 C 2,5 C 92 % 1016,6 hPa 0,0 mm 0,5 km/h (0 Bft) S 180 1,5 C 0,0 km/h (0 Bft)
11.09.2015 02:55 2,5 C 2,3 C 92 % 1016,3 hPa 0,0 mm 0,0 km/h (0 Bft) S 180 1,3 C 0,0 km/h (0 Bft)
11.09.2015 03:00 3,0 C 2,6 C 91 % 1016,3 hPa 0,0 mm 1,0 km/h (0 Bft) S 180 1,7 C 7,0 km/h (2 Bft)
11.09.2015 03:05 3,2 C 2,9 C 92 % 1016,3 hPa 0,0 mm 2,1 km/h (1 Bft) S 180 2,0 C 2,6 km/h (1 Bft)
11.09.2015 03:10 2,6 C 2,5 C 93 % 1016,3 hPa 0,0 mm 1,3 km/h (1 Bft) S-SW 202 1,6 C 0,0 km/h (0 Bft)
11.09.2015 03:15 2,6 C 2,5 C 93 % 1016,3 hPa 0,0 mm 0,3 km/h (0 Bft) W-SW 247 1,6 C 0,0 km/h (0 Bft)
11.09.2015 03:20 2,4 C 2,3 C 93 % 1016,3 hPa 0,0 mm 0,0 km/h (0 Bft) S 180 1,4 C 0,0 km/h (0 Bft)
11.09.2015 03:25 2,4 C 2,2 C 93 % 1016,3 hPa 0,0 mm 0,0 km/h (0 Bft) S 180 1,4 C 0,0 km/h (0 Bft)
11.09.2015 03:30 2,6 C 2,3 C 93 % 1016,3 hPa 0,0 mm 0,0 km/h (0 Bft) S 180 1,6 C 0,0 km/h (0 Bft)
11.09.2015 03:35 2,9 C 2,6 C 89 % 1016,4 hPa 0,0 mm 0,0 km/h (0 Bft) S 180 1,3 C 0,0 km/h (0 Bft)
11.09.2015 03:40 3,2 C 2,8 C 92 % 1016,4 hPa 0,0 mm 0,0 km/h (0 Bft) S 180 2,0 C 0,0 km/h (0 Bft)
11.09.2015 03:45 3,4 C 3,1 C 92 % 1016,4 hPa 0,0 mm 0,0 km/h (0 Bft) S 180 2,2 C 0,0 km/h (0 Bft)
11.09.2015 03:50 3,4 C 3,2 C 89 % 1016,4 hPa 0,0 mm 0,0 km/h (0 Bft) S 180 1,8 C 2,6 km/h (1 Bft)
11.09.2015 03:55 3,6 C 3,3 C 93 % 1016,3 hPa 0,0 mm 0,3 km/h (0 Bft) S 180 2,6 C 2,8 km/h (1 Bft)
11.09.2015 03:58 3,6 C 3,5 C 89 % 1016,3 hPa 0,0 mm 0,5 km/h (0 Bft) S 180 2,0 C 0,0 km/h (0 Bft)
11.09.2015 04:00 3,6 C 3,5 C 89 % 1016,3 hPa 0,0 mm 0,5 km/h (0 Bft) S 180 2,0 C 0,0 km/h (0 Bft)
11.09.2015 04:05 3,7 C 3,5 C 93 % 1016,3 hPa 0,0 mm 0,3 km/h (0 Bft) S 180 2,7 C 0,0 km/h (0 Bft)
11.09.2015 04:10 3,7 C 3,5 C 93 % 1016,3 hPa 0,0 mm 0,3 km/h (0 Bft) SW 225 2,7 C 0,0 km/h (0 Bft)
11.09.2015 04:15 3,6 C 3,4 C 93 % 1016,4 hPa 0,0 mm 0,3 km/h (0 Bft) SW 225 2,6 C 0,0 km/h (0 Bft)
11.09.2015 04:20 3,4 C 3,3 C 93 % 1016,4 hPa 0,0 mm 0,0 km/h (0 Bft) W-SW 247 2,4 C 0,0 km/h (0 Bft)
11.09.2015 04:25 3,4 C 3,2 C 93 % 1016,4 hPa 0,0 mm 0,0 km/h (0 Bft) W-SW 247 2,4 C 0,0 km/h (0 Bft)
11.09.2015 04:30 3,0 C 2,9 C 92 % 1016,4 hPa 0,0 mm 0,0 km/h (0 Bft) W-SW 247 1,8 C 0,0 km/h (0 Bft)
11.09.2015 04:35 2,8 C 2,7 C 93 % 1016,3 hPa 0,0 mm 0,3 km/h (0 Bft) SO 135 1,8 C 2,6 km/h (1 Bft)
11.09.2015 04:40 2,6 C 2,4 C 93 % 1016,3 hPa 0,0 mm 0,3 km/h (0 Bft) S-SO 157 1,6 C 0,0 km/h (0 Bft)
11.09.2015 04:45 2,9 C 2,6 C 93 % 1016,3 hPa 0,0 mm 0,3 km/h (0 Bft) S-SO 157 1,9 C 0,0 km/h (0 Bft)
11.09.2015 04:50 2,4 C 2,2 C 93 % 1016,3 hPa 0,0 mm 0,0 km/h (0 Bft) S-SO 157 1,4 C 0,0 km/h (0 Bft)
11.09.2015 04:55 2,3 C 2,1 C 93 % 1016,0 hPa 0,0 mm 0,0 km/h (0 Bft) S-SW 202 1,3 C 0,0 km/h (0 Bft)
11.09.2015 05:00 2,1 C 1,9 C 93 % 1016,0 hPa 0,0 mm 0,0 km/h (0 Bft) W-SW 247 1,1 C 0,0 km/h (0 Bft)
11.09.2015 05:05 2,4 C 2,0 C 93 % 1016,0 hPa 0,0 mm 0,0 km/h (0 Bft) S-SO 157 1,4 C 0,0 km/h (0 Bft)
11.09.2015 05:10 2,3 C 2,0 C 93 % 1016,0 hPa 0,0 mm 0,0 km/h (0 Bft) SO 135 1,3 C 0,0 km/h (0 Bft)
11.09.2015 05:15 2,2 C 1,9 C 93 % 1016,1 hPa 0,0 mm 0,0 km/h (0 Bft) SO 135 1,2 C 0,0 km/h (0 Bft)
11.09.2015 05:20 2,3 C 2,0 C 93 % 1016,1 hPa 0,0 mm 0,0 km/h (0 Bft) S-SO 157 1,3 C 0,0 km/h (0 Bft)
11.09.2015 05:25 2,8 C 2,3 C 93 % 1016,1 hPa 0,0 mm 0,0 km/h (0 Bft) S 180 1,8 C 0,0 km/h (0 Bft)
11.09.2015 05:30 2,5 C 2,2 C 93 % 1016,1 hPa 0,0 mm 0,3 km/h (0 Bft) W-SW 247 1,5 C 0,0 km/h (0 Bft)
11.09.2015 05:35 2,6 C 2,3 C 93 % 1015,9 hPa 0,0 mm 0,3 km/h (0 Bft) W-SW 247 1,6 C 0,0 km/h (0 Bft)
11.09.2015 05:40 2,2 C 2,0 C 93 % 1015,9 hPa 0,0 mm 0,0 km/h (0 Bft) W-SW 247 1,2 C 0,0 km/h (0 Bft)
11.09.2015 05:45 2,3 C 2,1 C 93 % 1015,9 hPa 0,0 mm 0,0 km/h (0 Bft) W-SW 247 1,3 C 0,0 km/h (0 Bft)
11.09.2015 05:50 2,4 C 2,1 C 93 % 1015,9 hPa 0,0 mm 0,0 km/h (0 Bft) W-SW 247 1,4 C 0,0 km/h (0 Bft)
11.09.2015 05:55 2,4 C 2,1 C 93 % 1015,8 hPa 0,0 mm 0,0 km/h (0 Bft) W-SW 247 1,4 C 0,0 km/h (0 Bft)
11.09.2015 06:00 2,3 C 2,1 C 93 % 1015,8 hPa 0,0 mm 0,0 km/h (0 Bft) W-SW 247 1,3 C 0,0 km/h (0 Bft)
11.09.2015 06:05 2,2 C 2,0 C 93 % 1015,8 hPa 0,0 mm 0,0 km/h (0 Bft) W-SW 247 1,2 C 0,0 km/h (0 Bft)
11.09.2015 06:10 2,2 C 1,9 C 93 % 1015,8 hPa 0,0 mm 0,0 km/h (0 Bft) W-SW 247 1,2 C 0,0 km/h (0 Bft)
11.09.2015 06:15 2,0 C 1,8 C 93 % 1015,9 hPa 0,0 mm 0,0 km/h (0 Bft) W-SW 247 1,0 C 0,0 km/h (0 Bft)
11.09.2015 06:20 2,0 C 1,8 C 93 % 1015,9 hPa 0,0 mm 0,0 km/h (0 Bft) W 270 1,0 C 0,0 km/h (0 Bft)
11.09.2015 06:25 2,2 C 1,9 C 93 % 1015,9 hPa 0,0 mm 0,0 km/h (0 Bft) SO 135 1,2 C 0,0 km/h (0 Bft)
11.09.2015 06:30 2,4 C 2,0 C 93 % 1015,9 hPa 0,0 mm 0,0 km/h (0 Bft) SO 135 1,4 C 0,0 km/h (0 Bft)
11.09.2015 06:35 2,2 C 1,9 C 93 % 1015,8 hPa 0,0 mm 0,0 km/h (0 Bft) SO 135 1,2 C 0,0 km/h (0 Bft)
11.09.2015 06:40 2,6 C 2,2 C 94 % 1015,8 hPa 0,0 mm 0,0 km/h (0 Bft) S-SO 157 1,7 C 0,0 km/h (0 Bft)
11.09.2015 06:45 2,4 C 2,1 C 94 % 1015,8 hPa 0,0 mm 1,0 km/h (0 Bft) W 270 1,5 C 0,0 km/h (0 Bft)
11.09.2015 06:50 2,4 C 2,2 C 94 % 1015,8 hPa 0,0 mm 1,0 km/h (0 Bft) O-SO 112 1,5 C 0,0 km/h (0 Bft)
11.09.2015 06:55 2,0 C 1,9 C 94 % 1016,1 hPa 0,0 mm 0,3 km/h (0 Bft) SO 135 1,1 C 0,0 km/h (0 Bft)
11.09.2015 07:00 2,3 C 2,1 C 94 % 1016,1 hPa 0,0 mm 0,0 km/h (0 Bft) N-NO 22 1,4 C 2,8 km/h (1 Bft)
11.09.2015 07:05 2,0 C 1,9 C 94 % 1016,1 hPa 0,0 mm 0,0 km/h (0 Bft) NO 45 1,1 C 0,0 km/h (0 Bft)
11.09.2015 07:10 2,0 C 1,9 C 94 % 1016,1 hPa 0,0 mm 0,0 km/h (0 Bft) N-NO 22 1,1 C 0,0 km/h (0 Bft)
11.09.2015 07:15 2,1 C 1,9 C 94 % 1016,2 hPa 0,0 mm 0,0 km/h (0 Bft) N 360 1,2 C 0,0 km/h (0 Bft)
11.09.2015 07:20 2,6 C 2,5 C 89 % 1016,2 hPa 0,0 mm 0,5 km/h (0 Bft) NW 315 1,0 C 11,4 km/h (2 Bft)
11.09.2015 07:25 2,6 C 2,6 C 89 % 1016,2 hPa 0,0 mm 1,8 km/h (1 Bft) O-SO 112 1,0 C 4,4 km/h (1 Bft)
11.09.2015 07:30 2,8 C 2,9 C 89 % 1016,2 hPa 0,0 mm 3,1 km/h (1 Bft) O-SO 112 1,2 C 3,6 km/h (1 Bft)
11.09.2015 07:35 2,8 C 3,0 C 89 % 1016,4 hPa 0,0 mm 2,3 km/h (1 Bft) NW 315 1,2 C 0,0 km/h (0 Bft)
11.09.2015 07:40 3,1 C 3,2 C 89 % 1016,4 hPa 0,0 mm 0,8 km/h (0 Bft) NO 45 1,5 C 0,0 km/h (0 Bft)
11.09.2015 07:45 3,2 C 3,5 C 89 % 1016,4 hPa 0,0 mm 0,3 km/h (0 Bft) SW 225 1,6 C 2,8 km/h (1 Bft)
11.09.2015 07:50 4,7 C 5,0 C 89 % 1016,4 hPa 0,0 mm 4,1 km/h (1 Bft) SW 225 3,0 C 14,0 km/h (3 Bft)
11.09.2015 07:55 5,0 C 5,2 C 93 % 1016,6 hPa 0,0 mm 4,1 km/h (1 Bft) O 90 4,0 C 0,0 km/h (0 Bft)
11.09.2015 08:00 4,6 C 5,2 C 89 % 1016,6 hPa 0,0 mm 0,8 km/h (0 Bft) O-NO 67 2,9 C 0,0 km/h (0 Bft)
11.09.2015 08:05 4,6 C 5,2 C 89 % 1016,6 hPa 0,0 mm 0,3 km/h (0 Bft) NW 315 2,9 C 0,0 km/h (0 Bft)
11.09.2015 08:10 5,0 C 6,0 C 94 % 1016,6 hPa 0,0 mm 0,8 km/h (0 Bft) W-NW 292 4,1 C 5,2 km/h (1 Bft)
11.09.2015 08:15 5,1 C 6,3 C 89 % 1016,9 hPa 0,0 mm 0,8 km/h (0 Bft) S-SO 157 3,4 C 0,0 km/h (0 Bft)
11.09.2015 08:20 5,6 C 7,4 C 94 % 1016,9 hPa 0,0 mm 0,5 km/h (0 Bft) O 90 4,7 C 0,0 km/h (0 Bft)
11.09.2015 08:25 6,0 C 8,7 C 93 % 1016,9 hPa 0,0 mm 0,0 km/h (0 Bft) O-NO 67 5,0 C 0,0 km/h (0 Bft)
11.09.2015 08:30 6,2 C 11,1 C 89 % 1016,9 hPa 0,0 mm 0,0 km/h (0 Bft) S-SO 157 4,5 C 0,0 km/h (0 Bft)
11.09.2015 08:35 6,3 C 12,8 C 89 % 1017,0 hPa 0,0 mm 0,0 km/h (0 Bft) SO 135 4,6 C 0,0 km/h (0 Bft)
11.09.2015 08:40 6,7 C 13,8 C 89 % 1017,0 hPa 0,0 mm 0,0 km/h (0 Bft) S 180 5,0 C 0,0 km/h (0 Bft)
11.09.2015 08:45 6,9 C 14,5 C 89 % 1017,0 hPa 0,0 mm 0,0 km/h (0 Bft) W-NW 292 5,2 C 0,0 km/h (0 Bft)
11.09.2015 08:50 7,7 C 15,8 C 89 % 1017,0 hPa 0,0 mm 0,0 km/h (0 Bft) O-SO 112 6,0 C 0,0 km/h (0 Bft)
11.09.2015 08:55 8,3 C 16,2 C 88 % 1017,2 hPa 0,0 mm 0,0 km/h (0 Bft) O-SO 112 6,4 C 0,0 km/h (0 Bft)
11.09.2015 09:00 8,8 C 17,0 C 88 % 1017,2 hPa 0,0 mm 0,0 km/h (0 Bft) SO 135 6,9 C 0,0 km/h (0 Bft)
11.09.2015 09:05 9,2 C 17,2 C 88 % 1017,2 hPa 0,0 mm 0,0 km/h (0 Bft) O-SO 112 7,3 C 0,0 km/h (0 Bft)
11.09.2015 09:10 10,0 C 17,4 C 88 % 1017,2 hPa 0,0 mm 0,0 km/h (0 Bft) O-SO 112 8,1 C 0,0 km/h (0 Bft)
11.09.2015 09:15 10,1 C 16,8 C 87 % 1017,6 hPa 0,0 mm 0,3 km/h (0 Bft) O-NO 67 8,0 C 0,0 km/h (0 Bft)
11.09.2015 09:20 10,7 C 18,0 C 87 % 1017,6 hPa 0,0 mm 0,3 km/h (0 Bft) O-SO 112 8,6 C 0,0 km/h (0 Bft)
11.09.2015 09:25 11,2 C 19,0 C 87 % 1017,6 hPa 0,0 mm 0,0 km/h (0 Bft) O-SO 112 9,1 C 0,0 km/h (0 Bft)
11.09.2015 09:30 11,8 C 19,1 C 87 % 1017,6 hPa 0,0 mm 0,0 km/h (0 Bft) NO 45 9,7 C 0,0 km/h (0 Bft)
11.09.2015 09:35 12,0 C 18,9 C 86 % 1018,2 hPa 0,0 mm 0,0 km/h (0 Bft) O-NO 67 9,7 C 0,0 km/h (0 Bft)
11.09.2015 09:40 12,2 C 17,7 C 86 % 1018,2 hPa 0,0 mm 0,0 km/h (0 Bft) N-NO 22 9,9 C 0,0 km/h (0 Bft)
11.09.2015 09:45 12,5 C 18,6 C 86 % 1018,2 hPa 0,0 mm 1,0 km/h (0 Bft) N-NW 337 10,2 C 4,4 km/h (1 Bft)
11.09.2015 09:50 12,3 C 18,0 C 86 % 1018,2 hPa 0,0 mm 1,3 km/h (1 Bft) S 180 10,0 C 0,0 km/h (0 Bft)
11.09.2015 09:55 12,3 C 17,5 C 85 % 1018,8 hPa 0,0 mm 0,8 km/h (0 Bft) W 270 9,9 C 0,0 km/h (0 Bft)
11.09.2015 09:59 12,5 C 17,6 C 85 % 1018,8 hPa 0,0 mm 1,6 km/h (1 Bft) O-SO 112 10,0 C 0,0 km/h (0 Bft)
11.09.2015 10:05 12,5 C 17,7 C 84 % 1018,8 hPa 0,0 mm 1,3 km/h (1 Bft) SO 135 9,9 C 0,0 km/h (0 Bft)
11.09.2015 10:10 12,7 C 17,9 C 83 % 1018,8 hPa 0,0 mm 0,0 km/h (0 Bft) O 90 9,9 C 0,0 km/h (0 Bft)
11.09.2015 10:15 13,4 C 19,1 C 82 % 1018,6 hPa 0,0 mm 0,0 km/h (0 Bft) O-SO 112 10,4 C 0,0 km/h (0 Bft)
11.09.2015 10:20 13,6 C 20,1 C 81 % 1018,6 hPa 0,0 mm 0,0 km/h (0 Bft) O 90 10,4 C 0,0 km/h (0 Bft)
11.09.2015 10:25 13,1 C 18,9 C 80 % 1018,6 hPa 0,0 mm 0,0 km/h (0 Bft) O-SO 112 9,7 C 0,0 km/h (0 Bft)
11.09.2015 10:30 12,7 C 17,0 C 80 % 1018,6 hPa 0,0 mm 0,0 km/h (0 Bft) O 90 9,3 C 0,0 km/h (0 Bft)
11.09.2015 10:35 12,7 C 16,3 C 79 % 1018,8 hPa 0,0 mm 0,0 km/h (0 Bft) O 90 9,2 C 0,0 km/h (0 Bft)
11.09.2015 10:40 12,6 C 15,8 C 79 % 1018,8 hPa 0,0 mm 0,0 km/h (0 Bft) O-SO 112 9,1 C 0,0 km/h (0 Bft)
11.09.2015 10:45 12,4 C 15,3 C 78 % 1018,8 hPa 0,0 mm 0,0 km/h (0 Bft) SO 135 8,7 C 0,0 km/h (0 Bft)
11.09.2015 10:50 12,2 C 14,9 C 78 % 1018,8 hPa 0,0 mm 0,0 km/h (0 Bft) SO 135 8,5 C 0,0 km/h (0 Bft)
11.09.2015 10:55 12,8 C 15,8 C 78 % 1018,2 hPa 0,0 mm 0,0 km/h (0 Bft) SO 135 9,1 C 0,0 km/h (0 Bft)
11.09.2015 11:00 14,6 C 19,4 C 76 % 1018,2 hPa 0,0 mm 0,0 km/h (0 Bft) O 90 10,4 C 0,0 km/h (0 Bft)
11.09.2015 11:05 15,0 C 20,8 C 76 % 1018,2 hPa 0,0 mm 0,0 km/h (0 Bft) O 90 10,8 C 0,0 km/h (0 Bft)
11.09.2015 11:10 15,6 C 22,4 C 74 % 1018,2 hPa 0,0 mm 0,0 km/h (0 Bft) O-SO 112 11,0 C 0,0 km/h (0 Bft)
11.09.2015 11:15 16,0 C 23,3 C 73 % 1018,4 hPa 0,0 mm 0,3 km/h (0 Bft) SO 135 11,2 C 0,0 km/h (0 Bft)
11.09.2015 11:20 16,5 C 23,7 C 70 % 1018,4 hPa 0,0 mm 0,3 km/h (0 Bft) O 90 11,0 C 0,0 km/h (0 Bft)
11.09.2015 11:25 17,1 C 24,4 C 70 % 1018,4 hPa 0,0 mm 0,0 km/h (0 Bft) O-NO 67 11,6 C 0,0 km/h (0 Bft)
11.09.2015 11:30 17,5 C 24,8 C 67 % 1018,4 hPa 0,0 mm 1,3 km/h (1 Bft) S 180 11,3 C 6,0 km/h (2 Bft)
11.09.2015 11:35 17,2 C 24,8 C 65 % 1018,6 hPa 0,0 mm 1,8 km/h (1 Bft) S 180 10,6 C 0,0 km/h (0 Bft)
11.09.2015 11:40 17,5 C 25,1 C 65 % 1018,6 hPa 0,0 mm 1,0 km/h (0 Bft) O-NO 67 10,8 C 5,7 km/h (1 Bft)
11.09.2015 11:45 17,6 C 24,6 C 63 % 1018,6 hPa 0,0 mm 2,3 km/h (1 Bft) NO 45 10,5 C 8,5 km/h (2 Bft)
11.09.2015 11:50 17,4 C 23,8 C 61 % 1018,6 hPa 0,0 mm 3,9 km/h (1 Bft) NO 45 9,8 C 0,0 km/h (0 Bft)
11.09.2015 11:55 17,7 C 24,3 C 61 % 1018,6 hPa 0,0 mm 2,8 km/h (1 Bft) NO 45 10,1 C 0,0 km/h (0 Bft)
11.09.2015 12:00 18,6 C 24,9 C 61 % 1018,6 hPa 0,0 mm 1,0 km/h (0 Bft) SO 135 10,9 C 5,7 km/h (1 Bft)
11.09.2015 12:05 18,4 C 24,8 C 60 % 1018,6 hPa 0,0 mm 1,3 km/h (1 Bft) NW 315 10,5 C 6,7 km/h (2 Bft)
11.09.2015 12:10 18,7 C 24,7 C 59 % 1018,6 hPa 0,0 mm 3,9 km/h (1 Bft) W-NW 292 10,5 C 6,2 km/h (2 Bft)
11.09.2015 12:15 18,9 C 24,6 C 57 % 1018,8 hPa 0,0 mm 5,2 km/h (1 Bft) NW 315 10,2 C 8,5 km/h (2 Bft)
11.09.2015 12:20 19,4 C 24,6 C 56 % 1018,8 hPa 0,0 mm 5,7 km/h (1 Bft) W 270 10,4 C 19,7 km/h (3 Bft)
11.09.2015 12:25 19,2 C 24,1 C 55 % 1018,8 hPa 0,0 mm 7,0 km/h (2 Bft) NW 315 9,9 C 9,8 km/h (2 Bft)
11.09.2015 12:30 19,3 C 24,1 C 53 % 1018,8 hPa 0,0 mm 7,3 km/h (2 Bft) W-NW 292 9,5 C 7,8 km/h (2 Bft)
11.09.2015 12:35 19,3 C 23,9 C 54 % 1018,8 hPa 0,0 mm 6,5 km/h (2 Bft) NW 315 9,8 C 8,3 km/h (2 Bft)
11.09.2015 12:40 19,3 C 23,4 C 53 % 1018,8 hPa 0,0 mm 8,8 km/h (2 Bft) NW 315 9,5 C 18,6 km/h (3 Bft)
11.09.2015 12:45 19,1 C 22,4 C 54 % 1018,8 hPa 0,0 mm 9,6 km/h (2 Bft) NW 315 9,6 C 8,8 km/h (2 Bft)
11.09.2015 12:50 19,4 C 22,4 C 54 % 1018,8 hPa 0,0 mm 8,0 km/h (2 Bft) NW 315 9,8 C 20,2 km/h (4 Bft)
11.09.2015 12:55 19,4 C 22,0 C 53 % 1018,6 hPa 0,0 mm 7,0 km/h (2 Bft) NW 315 9,6 C 7,5 km/h (2 Bft)
11.09.2015 13:00 19,7 C 21,5 C 53 % 1018,6 hPa 0,0 mm 7,5 km/h (2 Bft) W-NW 292 9,8 C 9,6 km/h (2 Bft)
11.09.2015 13:05 19,9 C 21,4 C 53 % 1018,6 hPa 0,0 mm 7,0 km/h (2 Bft) S-SO 157 10,0 C 10,1 km/h (2 Bft)
11.09.2015 13:10 19,8 C 21,5 C 52 % 1018,6 hPa 0,0 mm 6,0 km/h (2 Bft) W-SW 247 9,7 C 6,2 km/h (2 Bft)
11.09.2015 13:15 19,9 C 22,0 C 53 % 1018,6 hPa 0,0 mm 6,0 km/h (2 Bft) W-NW 292 10,0 C 12,9 km/h (3 Bft)
11.09.2015 13:20 19,9 C 22,3 C 52 % 1018,6 hPa 0,0 mm 7,8 km/h (2 Bft) NW 315 9,7 C 22,8 km/h (4 Bft)
11.09.2015 13:25 20,0 C 23,1 C 53 % 1018,6 hPa 0,0 mm 8,0 km/h (2 Bft) NW 315 10,1 C 9,6 km/h (2 Bft)
11.09.2015 13:30 19,6 C 22,7 C 53 % 1018,6 hPa 0,0 mm 7,8 km/h (2 Bft) W-NW 292 9,8 C 6,5 km/h (2 Bft)
11.09.2015 13:35 19,9 C 22,9 C 52 % 1018,5 hPa 0,0 mm 9,3 km/h (2 Bft) N-NW 337 9,7 C 6,7 km/h (2 Bft)
11.09.2015 13:40 20,0 C 23,5 C 51 % 1018,5 hPa 0,0 mm 7,5 km/h (2 Bft) NW 315 9,6 C 6,7 km/h (2 Bft)
11.09.2015 13:45 20,1 C 23,4 C 51 % 1018,5 hPa 0,0 mm 7,5 km/h (2 Bft) NW 315 9,6 C 8,5 km/h (2 Bft)
11.09.2015 13:50 19,6 C 22,8 C 51 % 1018,5 hPa 0,0 mm 10,4 km/h (2 Bft) NW 315 9,2 C 24,1 km/h (4 Bft)
11.09.2015 13:55 19,9 C 23,1 C 51 % 1018,6 hPa 0,0 mm 10,6 km/h (2 Bft) N-NW 337 9,5 C 8,0 km/h (2 Bft)
11.09.2015 14:00 19,8 C 23,2 C 52 % 1018,6 hPa 0,0 mm 9,3 km/h (2 Bft) S 180 9,7 C 0,0 km/h (0 Bft)
11.09.2015 14:05 19,7 C 23,2 C 52 % 1018,6 hPa 0,0 mm 5,2 km/h (1 Bft) W 270 9,6 C 0,0 km/h (0 Bft)
11.09.2015 14:10 20,0 C 24,3 C 52 % 1018,6 hPa 0,0 mm 1,8 km/h (1 Bft) S-SW 202 9,8 C 3,6 km/h (1 Bft)
11.09.2015 14:15 20,1 C 24,5 C 52 % 1018,6 hPa 0,0 mm 3,9 km/h (1 Bft) W-NW 292 9,9 C 7,3 km/h (2 Bft)
11.09.2015 14:20 20,2 C 24,1 C 52 % 1018,6 hPa 0,0 mm 6,2 km/h (2 Bft) W-NW 292 10,0 C 8,3 km/h (2 Bft)
11.09.2015 14:25 20,1 C 23,8 C 51 % 1018,6 hPa 0,0 mm 7,8 km/h (2 Bft) W-NW 292 9,6 C 8,0 km/h (2 Bft)
11.09.2015 14:30 19,9 C 23,8 C 51 % 1018,6 hPa 0,0 mm 7,3 km/h (2 Bft) W-NW 292 9,5 C 8,8 km/h (2 Bft)
11.09.2015 14:35 19,7 C 23,7 C 52 % 1018,4 hPa 0,0 mm 5,7 km/h (1 Bft) SO 135 9,6 C 0,0 km/h (0 Bft)
11.09.2015 14:40 19,6 C 23,7 C 51 % 1018,4 hPa 0,0 mm 6,2 km/h (2 Bft) NW 315 9,2 C 7,3 km/h (2 Bft)
11.09.2015 14:45 19,4 C 23,5 C 51 % 1018,4 hPa 0,0 mm 6,7 km/h (2 Bft) W-SW 247 9,0 C 7,5 km/h (2 Bft)
11.09.2015 14:50 19,6 C 23,6 C 51 % 1018,4 hPa 0,0 mm 7,5 km/h (2 Bft) W-NW 292 9,2 C 11,9 km/h (2 Bft)
11.09.2015 14:55 20,0 C 23,8 C 50 % 1018,4 hPa 0,0 mm 7,5 km/h (2 Bft) N-NO 22 9,3 C 10,1 km/h (2 Bft)
11.09.2015 15:00 20,3 C 24,4 C 49 % 1018,4 hPa 0,0 mm 7,8 km/h (2 Bft) W-NW 292 9,2 C 21,2 km/h (4 Bft)
11.09.2015 15:05 20,0 C 24,3 C 49 % 1018,4 hPa 0,0 mm 8,3 km/h (2 Bft) NW 315 9,0 C 8,8 km/h (2 Bft)
11.09.2015 15:10 19,8 C 23,8 C 51 % 1018,4 hPa 0,0 mm 6,7 km/h (2 Bft) NW 315 9,4 C 7,5 km/h (2 Bft)
11.09.2015 15:15 19,6 C 23,3 C 50 % 1018,4 hPa 0,0 mm 5,7 km/h (1 Bft) W 270 8,9 C 7,8 km/h (2 Bft)
11.09.2015 15:20 19,5 C 22,7 C 51 % 1018,4 hPa 0,0 mm 6,0 km/h (2 Bft) NW 315 9,1 C 14,0 km/h (3 Bft)
11.09.2015 15:25 19,8 C 23,5 C 50 % 1018,4 hPa 0,0 mm 5,2 km/h (1 Bft) W-NW 292 9,1 C 8,8 km/h (2 Bft)
11.09.2015 15:30 20,2 C 24,3 C 50 % 1018,4 hPa 0,0 mm 6,0 km/h (2 Bft) SW 225 9,4 C 6,5 km/h (2 Bft)
11.09.2015 15:35 20,3 C 25,0 C 50 % 1018,3 hPa 0,0 mm 5,2 km/h (1 Bft) S 180 9,5 C 7,3 km/h (2 Bft)
11.09.2015 15:40 19,8 C 24,4 C 51 % 1018,3 hPa 0,0 mm 4,4 km/h (1 Bft) NW 315 9,4 C 5,7 km/h (1 Bft)
11.09.2015 15:45 19,3 C 23,1 C 50 % 1018,3 hPa 0,0 mm 3,4 km/h (1 Bft) W 270 8,6 C 7,5 km/h (2 Bft)
11.09.2015 15:50 19,4 C 22,7 C 51 % 1018,3 hPa 0,0 mm 3,4 km/h (1 Bft) W-NW 292 9,0 C 0,0 km/h (0 Bft)
11.09.2015 15:55 18,9 C 22,1 C 51 % 1018,2 hPa 0,0 mm 3,6 km/h (1 Bft) S 180 8,5 C 8,5 km/h (2 Bft)
11.09.2015 16:00 18,5 C 20,9 C 53 % 1018,2 hPa 0,0 mm 1,8 km/h (1 Bft) W 270 8,7 C 0,0 km/h (0 Bft)
11.09.2015 16:05 18,5 C 20,9 C 53 % 1018,2 hPa 0,0 mm 1,8 km/h (1 Bft) W 270 8,7 C 0,0 km/h (0 Bft)
11.09.2015 16:10 18,6 C 21,0 C 53 % 1018,2 hPa 0,0 mm 2,1 km/h (1 Bft) NW 315 8,8 C 8,5 km/h (2 Bft)
11.09.2015 16:15 18,4 C 20,5 C 52 % 1018,3 hPa 0,0 mm 3,9 km/h (1 Bft) N-NW 337 8,4 C 18,4 km/h (3 Bft)
11.09.2015 16:20 17,9 C 19,5 C 52 % 1018,3 hPa 0,0 mm 6,0 km/h (2 Bft) W 270 7,9 C 7,5 km/h (2 Bft)
11.09.2015 16:25 17,5 C 18,9 C 52 % 1018,3 hPa 0,0 mm 7,0 km/h (2 Bft) NW 315 7,5 C 10,9 km/h (2 Bft)
11.09.2015 16:30 17,3 C 18,3 C 53 % 1018,3 hPa 0,0 mm 5,4 km/h (1 Bft) W-SW 247 7,6 C 0,0 km/h (0 Bft)
11.09.2015 16:35 17,4 C 18,1 C 54 % 1018,2 hPa 0,0 mm 3,6 km/h (1 Bft) NW 315 8,0 C 2,8 km/h (1 Bft)
11.09.2015 16:40 17,6 C 18,2 C 56 % 1018,2 hPa 0,0 mm 0,8 km/h (0 Bft) W-NW 292 8,7 C 0,0 km/h (0 Bft)
11.09.2015 16:45 17,7 C 18,8 C 56 % 1018,2 hPa 0,0 mm 0,5 km/h (0 Bft) NW 315 8,8 C 0,0 km/h (0 Bft)
11.09.2015 16:50 17,9 C 19,4 C 55 % 1018,2 hPa 0,0 mm 1,6 km/h (1 Bft) NW 315 8,7 C 6,7 km/h (2 Bft)
11.09.2015 16:55 17,7 C 19,3 C 54 % 1018,1 hPa 0,0 mm 3,6 km/h (1 Bft) NW 315 8,3 C 7,3 km/h (2 Bft)
11.09.2015 17:00 17,6 C 18,9 C 54 % 1018,1 hPa 0,0 mm 4,9 km/h (1 Bft) N-NW 337 8,2 C 6,7 km/h (2 Bft)
11.09.2015 17:05 17,4 C 18,4 C 53 % 1018,1 hPa 0,0 mm 4,4 km/h (1 Bft) N-NO 22 7,7 C 3,9 km/h (1 Bft)
11.09.2015 17:10 17,3 C 18,1 C 55 % 1018,1 hPa 0,0 mm 2,3 km/h (1 Bft) NW 315 8,2 C 0,0 km/h (0 Bft)
11.09.2015 17:15 17,2 C 18,2 C 55 % 1018,1 hPa 0,0 mm 0,8 km/h (0 Bft) NW 315 8,1 C 0,0 km/h (0 Bft)
11.09.2015 17:20 16,8 C 18,0 C 57 % 1018,1 hPa 0,0 mm 0,3 km/h (0 Bft) W-NW 292 8,2 C 0,0 km/h (0 Bft)
11.09.2015 17:25 16,8 C 18,1 C 58 % 1018,1 hPa 0,0 mm 0,3 km/h (0 Bft) W-NW 292 8,5 C 2,6 km/h (1 Bft)
11.09.2015 17:30 16,8 C 18,2 C 57 % 1018,1 hPa 0,0 mm 0,3 km/h (0 Bft) N-NO 22 8,2 C 0,0 km/h (0 Bft)
11.09.2015 17:35 16,8 C 18,2 C 58 % 1017,9 hPa 0,0 mm 0,3 km/h (0 Bft) N-NO 22 8,5 C 0,0 km/h (0 Bft)
11.09.2015 17:40 16,6 C 18,1 C 58 % 1017,9 hPa 0,0 mm 0,0 km/h (0 Bft) N-NO 22 8,3 C 0,0 km/h (0 Bft)
11.09.2015 17:45 16,5 C 17,8 C 59 % 1017,9 hPa 0,0 mm 0,3 km/h (0 Bft) NO 45 8,5 C 0,0 km/h (0 Bft)
11.09.2015 17:50 16,3 C 17,4 C 59 % 1017,9 hPa 0,0 mm 0,5 km/h (0 Bft) SO 135 8,3 C 4,7 km/h (1 Bft)
11.09.2015 17:55 16,3 C 17,3 C 59 % 1018,1 hPa 0,0 mm 0,8 km/h (0 Bft) O-SO 112 8,3 C 0,0 km/h (0 Bft)
11.09.2015 18:00 16,2 C 17,1 C 59 % 1018,1 hPa 0,0 mm 1,0 km/h (0 Bft) O-NO 67 8,2 C 0,0 km/h (0 Bft)
11.09.2015 18:05 16,0 C 17,1 C 60 % 1018,1 hPa 0,0 mm 0,5 km/h (0 Bft) O-NO 67 8,2 C 0,0 km/h (0 Bft)
11.09.2015 18:10 15,6 C 16,4 C 61 % 1018,1 hPa 0,0 mm 0,5 km/h (0 Bft) SO 135 8,1 C 0,0 km/h (0 Bft)
11.09.2015 18:15 15,4 C 16,1 C 62 % 1017,9 hPa 0,0 mm 0,3 km/h (0 Bft) SO 135 8,2 C 0,0 km/h (0 Bft)
11.09.2015 18:20 15,2 C 15,6 C 64 % 1017,9 hPa 0,0 mm 0,5 km/h (0 Bft) O-SO 112 8,4 C 0,0 km/h (0 Bft)
11.09.2015 18:25 15,1 C 15,5 C 65 % 1017,9 hPa 0,0 mm 0,5 km/h (0 Bft) O-SO 112 8,6 C 0,0 km/h (0 Bft)
11.09.2015 18:30 15,2 C 15,6 C 66 % 1017,9 hPa 0,0 mm 0,3 km/h (0 Bft) S-SO 157 8,9 C 0,0 km/h (0 Bft)
11.09.2015 18:35 15,1 C 15,6 C 66 % 1018,2 hPa 0,0 mm 0,3 km/h (0 Bft) S-SO 157 8,8 C 0,0 km/h (0 Bft)
11.09.2015 18:40 14,9 C 15,6 C 67 % 1018,2 hPa 0,0 mm 0,0 km/h (0 Bft) S-SO 157 8,8 C 0,0 km/h (0 Bft)
11.09.2015 18:45 14,8 C 15,5 C 67 % 1018,2 hPa 0,0 mm 0,0 km/h (0 Bft) S-SO 157 8,7 C 0,0 km/h (0 Bft)
11.09.2015 18:50 14,5 C 14,9 C 68 % 1018,2 hPa 0,0 mm 0,0 km/h (0 Bft) S-SO 157 8,7 C 0,0 km/h (0 Bft)
11.09.2015 18:55 14,2 C 14,5 C 68 % 1018,1 hPa 0,0 mm 0,0 km/h (0 Bft) O-SO 112 8,4 C 0,0 km/h (0 Bft)
11.09.2015 19:00 13,8 C 14,0 C 68 % 1018,1 hPa 0,0 mm 0,0 km/h (0 Bft) S-SO 157 8,0 C 0,0 km/h (0 Bft)
11.09.2015 19:05 13,7 C 13,8 C 68 % 1018,1 hPa 0,0 mm 0,0 km/h (0 Bft) S 180 7,9 C 0,0 km/h (0 Bft)
11.09.2015 19:10 13,8 C 13,8 C 69 % 1018,1 hPa 0,0 mm 0,0 km/h (0 Bft) S 180 8,2 C 0,0 km/h (0 Bft)
11.09.2015 19:15 13,6 C 13,6 C 69 % 1017,9 hPa 0,0 mm 0,0 km/h (0 Bft) S-SO 157 8,0 C 0,0 km/h (0 Bft)
11.09.2015 19:20 13,1 C 13,1 C 68 % 1017,9 hPa 0,0 mm 0,0 km/h (0 Bft) S-SO 157 7,3 C 0,0 km/h (0 Bft)
11.09.2015 19:25 12,6 C 12,7 C 69 % 1017,9 hPa 0,0 mm 0,0 km/h (0 Bft) S-SO 157 7,1 C 0,0 km/h (0 Bft)
11.09.2015 19:30 12,2 C 12,4 C 70 % 1017,9 hPa 0,0 mm 0,0 km/h (0 Bft) S 180 6,9 C 0,0 km/h (0 Bft)
11.09.2015 19:35 11,9 C 11,9 C 70 % 1017,9 hPa 0,0 mm 0,0 km/h (0 Bft) S 180 6,6 C 0,0 km/h (0 Bft)
11.09.2015 19:40 11,9 C 11,8 C 72 % 1017,9 hPa 0,0 mm 0,0 km/h (0 Bft) S-SO 157 7,0 C 0,0 km/h (0 Bft)
11.09.2015 19:45 11,9 C 11,9 C 73 % 1017,9 hPa 0,0 mm 0,0 km/h (0 Bft) S-SO 157 7,2 C 0,0 km/h (0 Bft)
11.09.2015 19:50 12,2 C 11,9 C 73 % 1017,9 hPa 0,0 mm 0,0 km/h (0 Bft) S-SO 157 7,5 C 0,0 km/h (0 Bft)
11.09.2015 19:55 11,5 C 11,4 C 72 % 1017,8 hPa 0,0 mm 0,3 km/h (0 Bft) SW 225 6,6 C 0,0 km/h (0 Bft)
11.09.2015 20:00 11,3 C 11,1 C 75 % 1017,8 hPa 0,0 mm 0,3 km/h (0 Bft) S-SO 157 7,0 C 0,0 km/h (0 Bft)
11.09.2015 20:05 11,2 C 11,0 C 75 % 1017,8 hPa 0,0 mm 0,3 km/h (0 Bft) S-SO 157 6,9 C 0,0 km/h (0 Bft)
11.09.2015 20:10 10,8 C 10,6 C 74 % 1017,8 hPa 0,0 mm 0,0 km/h (0 Bft) S-SO 157 6,4 C 0,0 km/h (0 Bft)
11.09.2015 20:15 10,8 C 10,6 C 75 % 1017,9 hPa 0,0 mm 0,0 km/h (0 Bft) SO 135 6,5 C 0,0 km/h (0 Bft)
11.09.2015 20:20 10,6 C 10,4 C 76 % 1017,9 hPa 0,0 mm 0,0 km/h (0 Bft) SO 135 6,5 C 0,0 km/h (0 Bft)
11.09.2015 20:25 10,5 C 10,3 C 76 % 1017,9 hPa 0,0 mm 0,0 km/h (0 Bft) SO 135 6,5 C 0,0 km/h (0 Bft)
11.09.2015 20:30 10,3 C 10,2 C 76 % 1017,9 hPa 0,0 mm 0,0 km/h (0 Bft) SO 135 6,3 C 0,0 km/h (0 Bft)
11.09.2015 20:35 10,4 C 10,2 C 76 % 1018,0 hPa 0,0 mm 0,0 km/h (0 Bft) SO 135 6,4 C 0,0 km/h (0 Bft)
11.09.2015 20:40 10,7 C 10,5 C 76 % 1018,0 hPa 0,0 mm 0,0 km/h (0 Bft) SO 135 6,6 C 0,0 km/h (0 Bft)
11.09.2015 20:45 10,8 C 10,6 C 78 % 1018,0 hPa 0,0 mm 0,0 km/h (0 Bft) S-SO 157 7,1 C 0,0 km/h (0 Bft)
11.09.2015 20:50 11,0 C 10,9 C 76 % 1018,0 hPa 0,0 mm 0,0 km/h (0 Bft) S-SO 157 6,9 C 0,0 km/h (0 Bft)
11.09.2015 20:55 11,1 C 10,9 C 78 % 1018,2 hPa 0,0 mm 0,0 km/h (0 Bft) W-SW 247 7,4 C 0,0 km/h (0 Bft)
11.09.2015 21:00 11,1 C 11,0 C 78 % 1018,2 hPa 0,0 mm 0,0 km/h (0 Bft) W-SW 247 7,4 C 0,0 km/h (0 Bft)
11.09.2015 21:05 11,2 C 11,1 C 78 % 1018,2 hPa 0,0 mm 0,0 km/h (0 Bft) SW 225 7,5 C 0,0 km/h (0 Bft)
11.09.2015 21:10 11,6 C 11,5 C 78 % 1018,2 hPa 0,0 mm 0,8 km/h (0 Bft) W-SW 247 7,9 C 0,0 km/h (0 Bft)
11.09.2015 21:15 11,9 C 11,7 C 78 % 1019,2 hPa 0,0 mm 2,6 km/h (1 Bft) SW 225 8,2 C 17,9 km/h (3 Bft)
11.09.2015 21:20 12,4 C 12,3 C 76 % 1019,2 hPa 0,0 mm 7,3 km/h (2 Bft) SO 135 8,3 C 30,3 km/h (5 Bft)
11.09.2015 21:25 12,3 C 12,1 C 78 % 1019,2 hPa 0,0 mm 8,8 km/h (2 Bft) W 270 8,6 C 7,8 km/h (2 Bft)
11.09.2015 21:30 11,7 C 11,5 C 79 % 1019,2 hPa 0,0 mm 6,2 km/h (2 Bft) SW 225 8,2 C 11,1 km/h (2 Bft)
11.09.2015 21:35 11,7 C 11,5 C 81 % 1019,4 hPa 0,7 mm 7,3 km/h (2 Bft) SW 225 8,5 C 13,2 km/h (3 Bft)
11.09.2015 21:40 11,7 C 11,4 C 82 % 1019,4 hPa 0,0 mm 8,8 km/h (2 Bft) S 180 8,7 C 3,6 km/h (1 Bft)
11.09.2015 21:45 11,5 C 11,3 C 84 % 1019,4 hPa 0,0 mm 7,5 km/h (2 Bft) O-SO 112 8,9 C 4,7 km/h (1 Bft)
11.09.2015 21:50 11,3 C 11,2 C 85 % 1019,4 hPa 0,0 mm 2,8 km/h (1 Bft) O-SO 112 8,9 C 0,0 km/h (0 Bft)
11.09.2015 21:55 11,2 C 11,1 C 86 % 1018,8 hPa 0,0 mm 0,8 km/h (0 Bft) O-SO 112 8,9 C 0,0 km/h (0 Bft)
11.09.2015 22:00 11,0 C 10,9 C 85 % 1018,8 hPa 0,0 mm 0,0 km/h (0 Bft) SO 135 8,6 C 0,0 km/h (0 Bft)
11.09.2015 22:02 11,0 C 10,9 C 85 % 1018,8 hPa 0,0 mm 0,0 km/h (0 Bft) SO 135 8,6 C 0,0 km/h (0 Bft)
11.09.2015 22:05 11,0 C 10,9 C 85 % 1018,8 hPa 0,0 mm 0,0 km/h (0 Bft) SO 135 8,6 C 0,0 km/h (0 Bft)
11.09.2015 22:10 10,8 C 10,6 C 85 % 1018,8 hPa 0,0 mm 0,0 km/h (0 Bft) O-SO 112 8,4 C 0,0 km/h (0 Bft)
11.09.2015 22:15 10,6 C 10,4 C 85 % 1018,8 hPa 0,0 mm 0,0 km/h (0 Bft) O-NO 67 8,2 C 0,0 km/h (0 Bft)
11.09.2015 22:20 10,4 C 10,3 C 85 % 1018,8 hPa 0,0 mm 0,0 km/h (0 Bft) NO 45 8,0 C 0,0 km/h (0 Bft)
11.09.2015 22:25 10,3 C 10,2 C 85 % 1018,8 hPa 0,0 mm 0,0 km/h (0 Bft) NO 45 7,9 C 0,0 km/h (0 Bft)
11.09.2015 22:30 10,1 C 10,0 C 85 % 1018,8 hPa 0,0 mm 0,0 km/h (0 Bft) O-NO 67 7,7 C 0,0 km/h (0 Bft)
11.09.2015 22:35 10,0 C 9,9 C 86 % 1018,6 hPa 0,0 mm 0,0 km/h (0 Bft) O-NO 67 7,8 C 0,0 km/h (0 Bft)
11.09.2015 22:40 9,8 C 9,6 C 86 % 1018,6 hPa 0,0 mm 0,0 km/h (0 Bft) O-NO 67 7,6 C 0,0 km/h (0 Bft)
11.09.2015 22:45 9,9 C 9,7 C 86 % 1018,6 hPa 0,0 mm 0,0 km/h (0 Bft) O 90 7,7 C 0,0 km/h (0 Bft)
11.09.2015 22:50 9,5 C 9,4 C 86 % 1018,6 hPa 0,0 mm 0,0 km/h (0 Bft) N-NW 337 7,3 C 0,0 km/h (0 Bft)
11.09.2015 22:55 9,8 C 9,6 C 86 % 1018,6 hPa 0,0 mm 0,3 km/h (0 Bft) O-SO 112 7,6 C 0,0 km/h (0 Bft)
11.09.2015 23:00 9,4 C 9,3 C 86 % 1018,6 hPa 0,0 mm 0,3 km/h (0 Bft) SO 135 7,2 C 0,0 km/h (0 Bft)
11.09.2015 23:05 9,6 C 9,4 C 87 % 1018,6 hPa 0,0 mm 0,0 km/h (0 Bft) SO 135 7,5 C 0,0 km/h (0 Bft)
11.09.2015 23:10 9,6 C 9,4 C 87 % 1018,6 hPa 0,0 mm 0,0 km/h (0 Bft) O-SO 112 7,5 C 0,0 km/h (0 Bft)
11.09.2015 23:15 9,4 C 9,2 C 87 % 1018,4 hPa 0,0 mm 0,0 km/h (0 Bft) SO 135 7,3 C 0,0 km/h (0 Bft)
11.09.2015 23:20 9,6 C 9,4 C 88 % 1018,4 hPa 0,0 mm 0,0 km/h (0 Bft) O 90 7,7 C 0,0 km/h (0 Bft)
11.09.2015 23:25 9,6 C 9,4 C 88 % 1018,4 hPa 0,0 mm 0,0 km/h (0 Bft) SO 135 7,7 C 0,0 km/h (0 Bft)
11.09.2015 23:30 9,1 C 9,0 C 88 % 1018,4 hPa 0,0 mm 0,0 km/h (0 Bft) SO 135 7,2 C 0,0 km/h (0 Bft)
11.09.2015 23:35 9,3 C 9,1 C 88 % 1018,3 hPa 0,0 mm 0,0 km/h (0 Bft) NO 45 7,4 C 0,0 km/h (0 Bft)
11.09.2015 23:40 9,4 C 9,2 C 88 % 1018,3 hPa 0,0 mm 0,0 km/h (0 Bft) O-NO 67 7,5 C 0,0 km/h (0 Bft)
11.09.2015 23:45 9,1 C 9,0 C 88 % 1018,3 hPa 0,0 mm 0,0 km/h (0 Bft) O 90 7,2 C 0,0 km/h (0 Bft)
11.09.2015 23:50 8,8 C 8,8 C 88 % 1018,3 hPa 0,0 mm 0,0 km/h (0 Bft) O-NO 67 6,9 C 0,0 km/h (0 Bft)
11.09.2015 23:55 8,8 C 8,7 C 88 % 1018,4 hPa 0,0 mm 0,0 km/h (0 Bft) O-SO 112 6,9 C 0,0 km/h (0 Bft)
_ Min-Zeit 07:10 06:20 15:05 06:50 - 23:55 - - 07:25 23:55
Minimum _ 2,0 C 1,8 C 49 % 1015,8 hPa - 0,0 km/h (0 Bft) - - 1,0 C 0,0 km/h (0 Bft)
_ Max-Zeit 15:35 11:40 08:20 21:50 21:35 13:55 - - 11:25 21:20
Maximum _ 20,3 C 25,1 C 94 % 1019,4 hPa 0,7 mm 10,6 km/h
N-NW (2 Bft)
- - 11,6 C 30,3 km/h
SO (5 Bft)
Durchschnitt _ 10,6 C 12,2 C 77 % 1017,7 hPa #0,7 mm 1,7 km/h (1 Bft) NW - 6,3 C 2,4 km/h (1 Bft)